F/V J. Louis Vincent — FQBL — position and weather

sailwx.info

Track history (hours):
 
Tides and Currents Weather Stations Pressure Air Temp Water Temp Dewpoint Dewpoint Depression Visibility Wind Speed Wind Dir Waves Ship Positions

F/V J. Louis Vincent

Last reported at 2015-Aug-07 17:07 UTC. Time now 2015-Aug-30 01:38 UTC.
Position N 43°24' E 003°42'.
Warning: this ship's position is 22 days out of date.

Length 29 m.

Type: Fishing. MMSI: 227146600.

Date/timePositionNaut miles runAvg speedWind from/ knotsBaromVisibWave heightAir tempDewpointWater temp
2015-Aug-07 17:07N 43°24' E 003°42'1 1.0
2015-Aug-07 16:32N 43°24' E 003°43'1 0.7
2015-Aug-07 15:33N 43°23' E 003°42'1211.5
2015-Aug-07 14:32N 43°13' E 003°49'8 6.9
2015-Aug-07 13:22N 43°06' E 003°54'9 4.4
2015-Aug-07 11:25N 42°58' E 003°60'4 3.4
2015-Aug-07 10:21N 42°56' E 004°04'5 4.1
2015-Aug-07 09:04N 42°53' E 004°10'3 4.2
2015-Aug-07 08:26N 42°53' E 004°14'4 4.3
2015-Aug-07 07:31N 42°52' E 004°19'2 2.2
2015-Aug-07 06:32N 42°54' E 004°19'5 4.3
2015-Aug-07 05:29N 42°58' E 004°15'4 4.2
2015-Aug-07 04:32N 42°60' E 004°11'5 4.4
2015-Aug-07 03:26N 43°03' E 004°06'9 9.6
2015-Aug-07 02:30N 43°10' E 003°58'1111.5
2015-Aug-07 01:31N 43°19' E 003°48'7 0.9
2015-Aug-06 17:33N 43°24' E 003°42'3 3.5
2015-Aug-06 16:34N 43°22' E 003°46'1211.7
2015-Aug-06 15:31N 43°14' E 003°58'1111.8
2015-Aug-06 14:33N 43°06' E 004°10'6 5.9
2015-Aug-06 13:32N 43°03' E 004°17'5 4.4
2015-Aug-06 12:19N 43°03' E 004°24'3 4.5
2015-Aug-06 11:33N 43°02' E 004°29'4 4.2
2015-Aug-06 10:32N 42°59' E 004°32'4 4.4
2015-Aug-06 09:33N 42°58' E 004°38'4 4.4
2015-Aug-06 08:32N 42°58' E 004°44'2 1.6
2015-Aug-06 07:33N 42°59' E 004°46'4 4.0
2015-Aug-06 06:33N 42°60' E 004°40'4 4.4
2015-Aug-06 05:31N 43°01' E 004°35'4 4.4
2015-Aug-06 04:33N 43°02' E 004°29'2710.9
2015-Aug-06 02:06N 43°17' E 003°58'711.2
2015-Aug-06 01:29N 43°21' E 003°50'7 0.7
2015-Aug-05 16:34N 43°24' E 003°42'0 0.3
2015-Aug-05 15:31N 43°24' E 003°42'9 9.6
2015-Aug-05 14:34N 43°15' E 003°47'15 6.5
2015-Aug-05 12:17N 43°02' E 003°54'5 4.4
2015-Aug-05 11:04N 42°56' E 003°57'16 4.4
2015-Aug-05 07:18N 42°54' E 004°19'4 5.2
2015-Aug-05 06:33N 42°54' E 004°24'4 4.1
2015-Aug-05 05:33N 42°58' E 004°26'4 4.3
2015-Aug-05 04:33N 43°02' E 004°25'9 8.4
2015-Aug-05 03:30N 43°06' E 004°14'15 0.7
2015-Aug-04 06:33N 42°54' E 004°24'4 4.2
2015-Aug-04 05:33N 42°58' E 004°27'4 4.4
2015-Aug-04 04:33N 43°02' E 004°25'8 8.2
2015-Aug-04 03:32N 43°07' E 004°16'2311.6
2015-Aug-04 01:33N 43°20' E 003°49'7 0.8
2015-Aug-03 17:08N 43°24' E 003°42'0 0.0
2015-Aug-03 16:33N 43°24' E 003°42'0 0.4
2015-Aug-03 15:33N 43°24' E 003°42'5 5.2
2015-Aug-03 14:32N 43°19' E 003°41'1111.6
2015-Aug-03 13:33N 43°07' E 003°40'1212.2
2015-Aug-03 12:33N 42°55' E 003°38'4 3.6
2015-Aug-03 11:32N 42°52' E 003°34'5 4.4
2015-Aug-03 10:20N 42°50' E 003°28'6 1.4
2015-Aug-03 06:23N 42°45' E 003°23'5 4.5
2015-Aug-03 05:22N 42°50' E 003°23'  
2015-Jul-31 17:25N 43°24' E 003°43'13 6.5
2015-Jul-31 15:27N 43°11' E 003°39'1111.8
2015-Jul-31 14:33N 43°01' E 003°36'23 1.1
2015-Jul-30 17:19N 43°24' E 003°42'4 5.0
2015-Jul-30 16:28N 43°22' E 003°47'29 9.9
2015-Jul-30 13:33N 43°04' E 004°18'5 4.4
2015-Jul-30 12:25N 43°03' E 004°25'4 4.2
2015-Jul-30 11:33N 43°02' E 004°30'3 2.9
2015-Jul-30 10:33N 42°60' E 004°32'4 4.3
2015-Jul-30 09:33N 42°58' E 004°38'4 4.3
2015-Jul-30 08:33N 42°58' E 004°44'2 1.8
2015-Jul-30 07:33N 42°59' E 004°46'4 4.1
2015-Jul-30 06:33N 42°60' E 004°40'4 4.3
2015-Jul-30 05:33N 43°01' E 004°35'4 4.3
2015-Jul-30 04:33N 43°02' E 004°29'10 9.9
2015-Jul-30 03:31N 43°07' E 004°17'1411.4
2015-Jul-30 02:20N 43°15' E 004°02'2 0.2
2015-Jul-29 15:16N 43°14' E 004°00'811.7
2015-Jul-29 14:33N 43°08' E 004°09'5 5.1
2015-Jul-29 13:33N 43°05' E 004°15'4 4.4
2015-Jul-29 12:32N 43°02' E 004°20'4 4.3
2015-Jul-29 11:33N 43°01' E 004°25'5 4.5
2015-Jul-29 10:33N 42°59' E 004°31'4 4.4
2015-Jul-29 09:33N 42°58' E 004°36'4 4.3
2015-Jul-29 08:33N 42°58' E 004°42'3 2.7
2015-Jul-29 07:33N 42°58' E 004°46'4 3.8
2015-Jul-29 06:33N 42°59' E 004°41'4 4.4
2015-Jul-29 05:33N 43°00' E 004°35'4 4.4
2015-Jul-29 04:33N 43°01' E 004°29'10 9.6
2015-Jul-29 03:33N 43°07' E 004°18'1111.5
2015-Jul-29 02:33N 43°13' E 004°05'20 2.2
2015-Jul-28 17:18N 43°24' E 003°42'  
Track history (hours):
 
Tides and Currents Weather Stations Pressure Air Temp Water Temp Dewpoint Dewpoint Depression Visibility Wind Speed Wind Dir Waves Ship Positions

F/V J. Louis Vincent

Last reported at 2015-Aug-07 17:07 UTC. Time now 2015-Aug-30 01:38 UTC.
Position N 43°24' E 003°42'.
Warning: this ship's position is 22 days out of date.

Length 29 m.

Type: Fishing. MMSI: 227146600.

Date/timePositionNaut miles runAvg speedWind from/ knotsBaromVisibWave heightAir tempDewpointWater temp
2015-Aug-07 17:07N 43°24' E 003°42'1 1.0
2015-Aug-07 16:32N 43°24' E 003°43'1 0.7
2015-Aug-07 15:33N 43°23' E 003°42'1211.5
2015-Aug-07 14:32N 43°13' E 003°49'8 6.9
2015-Aug-07 13:22N 43°06' E 003°54'9 4.4
2015-Aug-07 11:25N 42°58' E 003°60'4 3.4
2015-Aug-07 10:21N 42°56' E 004°04'5 4.1
2015-Aug-07 09:04N 42°53' E 004°10'3 4.2
2015-Aug-07 08:26N 42°53' E 004°14'4 4.3
2015-Aug-07 07:31N 42°52' E 004°19'2 2.2
2015-Aug-07 06:32N 42°54' E 004°19'5 4.3
2015-Aug-07 05:29N 42°58' E 004°15'4 4.2
2015-Aug-07 04:32N 42°60' E 004°11'5 4.4
2015-Aug-07 03:26N 43°03' E 004°06'9 9.6
2015-Aug-07 02:30N 43°10' E 003°58'1111.5
2015-Aug-07 01:31N 43°19' E 003°48'7 0.9
2015-Aug-06 17:33N 43°24' E 003°42'3 3.5
2015-Aug-06 16:34N 43°22' E 003°46'1211.7
2015-Aug-06 15:31N 43°14' E 003°58'1111.8
2015-Aug-06 14:33N 43°06' E 004°10'6 5.9
2015-Aug-06 13:32N 43°03' E 004°17'5 4.4
2015-Aug-06 12:19N 43°03' E 004°24'3 4.5
2015-Aug-06 11:33N 43°02' E 004°29'4 4.2
2015-Aug-06 10:32N 42°59' E 004°32'4 4.4
2015-Aug-06 09:33N 42°58' E 004°38'4 4.4
2015-Aug-06 08:32N 42°58' E 004°44'2 1.6
2015-Aug-06 07:33N 42°59' E 004°46'4 4.0
2015-Aug-06 06:33N 42°60' E 004°40'4 4.4
2015-Aug-06 05:31N 43°01' E 004°35'4 4.4
2015-Aug-06 04:33N 43°02' E 004°29'2710.9
2015-Aug-06 02:06N 43°17' E 003°58'711.2
2015-Aug-06 01:29N 43°21' E 003°50'7 0.7
2015-Aug-05 16:34N 43°24' E 003°42'0 0.3
2015-Aug-05 15:31N 43°24' E 003°42'9 9.6
2015-Aug-05 14:34N 43°15' E 003°47'15 6.5
2015-Aug-05 12:17N 43°02' E 003°54'5 4.4
2015-Aug-05 11:04N 42°56' E 003°57'16 4.4
2015-Aug-05 07:18N 42°54' E 004°19'4 5.2
2015-Aug-05 06:33N 42°54' E 004°24'4 4.1
2015-Aug-05 05:33N 42°58' E 004°26'4 4.3
2015-Aug-05 04:33N 43°02' E 004°25'9 8.4
2015-Aug-05 03:30N 43°06' E 004°14'15 0.7
2015-Aug-04 06:33N 42°54' E 004°24'4 4.2
2015-Aug-04 05:33N 42°58' E 004°27'4 4.4
2015-Aug-04 04:33N 43°02' E 004°25'8 8.2
2015-Aug-04 03:32N 43°07' E 004°16'2311.6
2015-Aug-04 01:33N 43°20' E 003°49'7 0.8
2015-Aug-03 17:08N 43°24' E 003°42'0 0.0
2015-Aug-03 16:33N 43°24' E 003°42'0 0.4
2015-Aug-03 15:33N 43°24' E 003°42'5 5.2
2015-Aug-03 14:32N 43°19' E 003°41'1111.6
2015-Aug-03 13:33N 43°07' E 003°40'1212.2
2015-Aug-03 12:33N 42°55' E 003°38'4 3.6
2015-Aug-03 11:32N 42°52' E 003°34'5 4.4
2015-Aug-03 10:20N 42°50' E 003°28'6 1.4
2015-Aug-03 06:23N 42°45' E 003°23'5 4.5
2015-Aug-03 05:22N 42°50' E 003°23'  
2015-Jul-31 17:25N 43°24' E 003°43'13 6.5
2015-Jul-31 15:27N 43°11' E 003°39'1111.8
2015-Jul-31 14:33N 43°01' E 003°36'23 1.1
2015-Jul-30 17:19N 43°24' E 003°42'4 5.0
2015-Jul-30 16:28N 43°22' E 003°47'29 9.9
2015-Jul-30 13:33N 43°04' E 004°18'5 4.4
2015-Jul-30 12:25N 43°03' E 004°25'4 4.2
2015-Jul-30 11:33N 43°02' E 004°30'3 2.9
2015-Jul-30 10:33N 42°60' E 004°32'4 4.3
2015-Jul-30 09:33N 42°58' E 004°38'4 4.3
2015-Jul-30 08:33N 42°58' E 004°44'2 1.8
2015-Jul-30 07:33N 42°59' E 004°46'4 4.1
2015-Jul-30 06:33N 42°60' E 004°40'4 4.3
2015-Jul-30 05:33N 43°01' E 004°35'4 4.3
2015-Jul-30 04:33N 43°02' E 004°29'10 9.9
2015-Jul-30 03:31N 43°07' E 004°17'1411.4
2015-Jul-30 02:20N 43°15' E 004°02'2 0.2
2015-Jul-29 15:16N 43°14' E 004°00'811.7
2015-Jul-29 14:33N 43°08' E 004°09'5 5.1
2015-Jul-29 13:33N 43°05' E 004°15'4 4.4
2015-Jul-29 12:32N 43°02' E 004°20'4 4.3
2015-Jul-29 11:33N 43°01' E 004°25'5 4.5
2015-Jul-29 10:33N 42°59' E 004°31'4 4.4
2015-Jul-29 09:33N 42°58' E 004°36'4 4.3
2015-Jul-29 08:33N 42°58' E 004°42'3 2.7
2015-Jul-29 07:33N 42°58' E 004°46'4 3.8
2015-Jul-29 06:33N 42°59' E 004°41'4 4.4
2015-Jul-29 05:33N 43°00' E 004°35'4 4.4
2015-Jul-29 04:33N 43°01' E 004°29'10 9.6
2015-Jul-29 03:33N 43°07' E 004°18'1111.5
2015-Jul-29 02:33N 43°13' E 004°05'20 2.2
2015-Jul-28 17:18N 43°24' E 003°42'  

Dump ship's entire track history